DW2686 Weather Reports


time (UTC)temp
C
wind
direction
speed
KPH
gust
KPH
rain 1hr
cm
rain 24hr
cm
rain mn
cm
humidity
%
barometer
mb
20260504012043 16 240 0.0 0.0 0.00 0.00 0.00 70 1016.1
20260504011542 16 240 0.0 0.0 0.00 0.00 0.00 69 1016.1
20260504011042 16 240 0.0 3.2 0.00 0.00 0.00 68 1016.0
20260504010542 17 240 0.0 3.2 0.00 0.00 0.00 69 1016.0
20260504010043 17 240 0.0 3.2 0.00 0.00 0.00 68 1016.0
20260504005542 17 240 0.0 4.8 0.00 0.00 0.00 68 1016.0
20260504005045 17 218 0.0 4.8 0.00 0.00 0.00 67 1015.8
20260504004542 17 233 0.0 4.8 0.00 0.00 0.00 67 1015.8
20260504004041 17 204 0.0 4.8 0.00 0.00 0.00 65 1015.7
20260504003541 18 290 0.0 1.6 0.00 0.00 0.00 63 1015.7
20260504003044 18 344 0.0 0.0 0.00 0.00 0.00 61 1015.5
20260504002541 19 344 0.0 0.0 0.00 0.00 0.00 62 1015.4
20260504002040 20 344 0.0 0.0 0.00 0.00 0.00 57 1015.4
20260504001540 20 344 0.0 0.0 0.00 0.00 0.00 56 1015.4
20260504001040 20 344 0.0 0.0 0.00 0.00 0.00 57 1015.3
20260504000541 21 344 0.0 0.0 0.00 0.00 0.00 54 1015.4
20260504000056 21 344 0.0 0.0 0.00 0.00 0.00 50 1015.4
20260503235538 21 344 0.0 0.0 0.00 0.00 0.00 46 1015.3
20260503235038 22 344 0.0 3.2 0.00 0.00 0.00 44 1015.3
20260503234538 22 344 0.0 4.8 0.00 0.00 0.00 44 1015.4
20260503234038 22 355 0.0 4.8 0.00 0.00 0.00 45 1015.5
20260503233537 22 11 0.0 4.8 0.00 0.00 0.00 43 1015.5
20260503233040 23 341 0.0 3.2 0.00 0.00 0.00 43 1015.5
20260503232536 23 355 0.0 3.2 0.00 0.00 0.00 41 1015.5
20260503232036 23 355 0.0 3.2 0.00 0.00 0.00 38 1015.5
20260503231536 23 5 0.0 12.9 0.00 0.00 0.00 37 1015.6
20260503231036 23 9 3.2 14.5 0.00 0.00 0.00 37 1015.5
20260503230535 23 5 3.2 14.5 0.00 0.00 0.00 36 1015.6
20260503230035 23 19 0.0 14.5 0.00 0.00 0.00 39 1015.6
20260503225635 23 32 3.2 14.5 0.00 0.00 0.00 36 1015.6
20260503225034 23 344 3.2 12.9 0.00 0.00 0.00 37 1015.5
20260503224534 23 346 3.2 12.9 0.00 0.00 0.00 37 1015.5
20260503224034 23 5 3.2 9.7 0.00 0.00 0.00 38 1015.5
20260503223535 23 9 3.2 12.9 0.00 0.00 0.00 34 1015.4
20260503223034 23 22 1.6 12.9 0.00 0.00 0.00 35 1015.5
20260503222533 23 17 6.4 12.9 0.00 0.00 0.00 35 1015.5
20260503222033 24 38 3.2 9.7 0.00 0.00 0.00 34 1015.4
20260503221535 24 347 4.8 9.7 0.00 0.00 0.00 35 1015.4
20260503221031 24 344 3.2 9.7 0.00 0.00 0.00 34 1015.4
20260503220531 24 343 0.0 12.9 0.00 0.00 0.00 35 1015.5
20260503220031 23 18 4.8 12.9 0.00 0.00 0.00 34 1015.5
20260503215532 23 325 1.6 9.7 0.00 0.00 0.00 35 1015.5
20260503215033 23 310 3.2 12.9 0.00 0.00 0.00 33 1015.6
20260503214531 23 19 6.4 17.7 0.00 0.00 0.00 35 1015.6
20260503214029 23 306 6.4 17.7 0.00 0.00 0.00 35 1015.6
20260503213528 24 323 1.6 16.1 0.00 0.00 0.00 36 1015.7
20260503213027 23 44 4.8 16.1 0.00 0.00 0.00 33 1015.8
20260503212528 24 351 6.4 16.1 0.00 0.00 0.00 36 1015.7
20260503212025 23 346 4.8 14.5 0.00 0.00 0.00 34 1015.8
20260503211525 23 322 6.4 12.9 0.00 0.00 0.00 35 1015.8
20260503211024 23 355 3.2 12.9 0.00 0.00 0.00 34 1016.0
20260503210523 23 336 6.4 17.7 0.00 0.00 0.00 36 1016.1
20260503210023 24 344 6.4 17.7 0.00 0.00 0.00 35 1016.1
20260503205524 24 138 1.6 16.1 0.00 0.00 0.00 36 1016.2
20260503205022 23 283 3.2 16.1 0.00 0.00 0.00 37 1016.3
20260503204520 23 350 6.4 14.5 0.00 0.00 0.00 36 1016.4
20260503204019 23 57 3.2 16.1 0.00 0.00 0.00 34 1016.4
20260503203521 23 360 6.4 16.1 0.00 0.00 0.00 35 1016.6
20260503203019 23 321 4.8 12.9 0.00 0.00 0.00 34 1016.6
20260503202517 23 348 6.4 16.1 0.00 0.00 0.00 33 1016.7
20260503202019 23 344 4.8 14.5 0.00 0.00 0.00 34 1016.7
20260503201516 23 71 3.2 16.1 0.00 0.00 0.00 36 1016.7
20260503201018 23 18 8.0 16.1 0.00 0.00 0.00 35 1016.7
20260503200515 23 69 4.8 14.5 0.00 0.00 0.00 32 1016.7
20260503200015 23 355 6.4 14.5 0.00 0.00 0.00 35 1016.8
20260503195514 23 31 1.6 12.9 0.00 0.00 0.00 35 1017.0
20260503195013 23 5 3.2 9.7 0.00 0.00 0.00 36 1017.0
20260503194515 23 250 3.2 16.1 0.00 0.00 0.00 34 1017.1
20260503194012 23 9 6.4 16.1 0.00 0.00 0.00 35 1017.2
20260503193514 23 93 6.4 19.3 0.00 0.00 0.00 34 1017.3
20260503193012 23 63 8.0 17.7 0.00 0.00 0.00 33 1017.4
20260503192511 23 87 4.8 14.5 0.00 0.00 0.00 35 1017.4
20260503192013 23 44 6.4 14.5 0.00 0.00 0.00 36 1017.5
20260503191511 23 40 3.2 8.0 0.00 0.00 0.00 34 1017.5
20260503191010 23 49 1.6 14.5 0.00 0.00 0.00 33 1017.7
20260503190513 23 14 4.8 14.5 0.00 0.00 0.00 34 1017.9
20260503190013 23 38 4.8 9.7 0.00 0.00 0.00 35 1017.9
20260503185508 23 338 4.8 9.7 0.00 0.00 0.00 36 1017.9
20260503185008 23 96 4.8 14.5 0.00 0.00 0.00 35 1018.2
20260503184513 23 53 8.0 14.5 0.00 0.00 0.00 37 1018.2
20260503184008 23 334 4.8 9.7 0.00 0.00 0.00 36 1018.3
20260503183505 23 279 4.8 9.7 0.00 0.00 0.00 35 1018.3
20260503183006 22 275 3.2 14.5 0.00 0.00 0.00 35 1018.5
20260503182505 22 323 6.4 14.5 0.00 0.00 0.00 34 1018.5
20260503182006 22 25 4.8 16.1 0.00 0.00 0.00 35 1018.5
20260503181505 22 74 6.4 16.1 0.00 0.00 0.00 34 1018.6
20260503181005 22 30 8.0 16.1 0.00 0.00 0.00 35 1018.6
20260503180502 22 99 4.8 16.1 0.00 0.00 0.00 33 1018.6
20260503180002 22 331 9.7 17.7 0.00 0.00 0.00 35 1018.7
20260503175503 22 360 4.8 11.3 0.00 0.00 0.00 38 1018.7
20260503175001 22 109 4.8 20.9 0.00 0.00 0.00 35 1018.7
20260503174504 22 65 12.9 20.9 0.00 0.00 0.00 36 1018.7
20260503174100 22 92 6.4 19.3 0.00 0.00 0.00 35 1018.7
20260503173600 22 70 8.0 19.3 0.00 0.00 0.00 37 1018.8
20260503173100 22 98 6.4 19.3 0.00 0.00 0.00 37 1018.9
20260503172558 22 64 6.4 19.3 0.00 0.00 0.00 36 1018.8
20260503172057 22 37 9.7 19.3 0.00 0.00 0.00 36 1018.9
20260503171612 22 67 4.8 17.7 0.00 0.00 0.00 36 1019.0
20260503171059 22 343 9.7 17.7 0.00 0.00 0.00 36 1019.1
20260503170555 22 355 4.8 17.7 0.00 0.00 0.00 38 1019.1
20260503170105 22 28 9.7 17.7 0.00 0.00 0.00 36 1019.2
20260503150534 20 61 6.4 16.1 0.00 0.00 0.00 43 1020.0
20260503131003 14 360 0.0 3.2 0.00 0.00 0.00 85 1019.3
20260503130503 13 360 0.0 3.2 0.00 0.00 0.00 86 1019.3
20260503110533 6 346 0.0 3.2 0.00 0.00 0.00 95 1018.4
20260503081515 7 65 0.0 0.0 0.00 0.51 0.00 94 1017.3
20260503081011 7 65 0.0 0.0 0.00 0.51 0.00 94 1017.3
20260503080513 7 65 0.0 3.2 0.00 0.51 0.00 94 1017.2
20260503072507 7 65 0.0 3.2 0.00 0.99 0.00 94 1016.8
20260503072006 7 65 0.0 1.6 0.00 0.99 0.00 94 1016.9
20260503071506 7 65 0.0 1.6 0.00 0.99 0.00 94 1016.9
20260503071008 7 65 0.0 3.2 0.00 0.99 0.00 94 1016.9
20260503070506 7 65 0.0 3.2 0.00 0.99 0.00 94 1017.0
20260503055055 8 349 0.0 0.0 0.00 1.37 0.00 94 1016.7
20260503054601 8 349 0.0 0.0 0.00 1.37 0.00 94 1016.7
20260503054059 8 349 0.0 0.0 0.00 1.37 0.00 94 1016.7
20260503053554 8 349 0.0 0.0 0.00 1.37 0.00 93 1016.7
20260503053054 8 349 0.0 0.0 0.00 1.37 0.00 93 1016.7
20260503052553 8 349 0.0 0.0 0.00 1.37 0.00 93 1016.6
20260503052052 8 349 0.0 0.0 0.00 1.37 0.00 93 1016.7
20260503051550 8 349 0.0 0.0 0.00 1.37 0.00 93 1016.6
20260503051051 8 349 0.0 0.0 0.00 1.37 0.00 93 1016.5
20260503050549 8 349 0.0 0.0 0.00 1.37 0.00 93 1016.6
20260503050049 8 349 0.0 0.0 0.00 1.37 0.00 93 1016.6
20260503045547 9 349 0.0 0.0 0.00 1.37 1.37 92 1016.5
20260503045046 9 349 0.0 0.0 0.00 1.37 1.37 92 1016.5
20260503044552 9 349 0.0 0.0 0.00 1.37 1.37 93 1016.4
20260503044045 9 349 0.0 0.0 0.00 1.37 1.37 93 1016.4
20260503043549 9 349 0.0 3.2 0.00 1.37 1.37 93 1016.4
20260503043049 9 349 0.0 3.2 0.00 1.37 1.37 93 1016.4
20260503042546 9 349 0.0 0.0 0.00 1.37 1.37 92 1016.4
20260503042043 9 349 0.0 0.0 0.00 1.37 1.37 91 1016.4
20260503041546 9 349 0.0 0.0 0.00 1.37 1.37 91 1016.4
20260503041040 9 349 0.0 0.0 0.00 1.37 1.37 92 1016.3
20260503040540 9 349 0.0 0.0 0.00 1.37 1.37 91 1016.3
20260503040042 10 349 0.0 0.0 0.00 1.37 1.37 91 1016.3
20260503035539 10 349 0.0 0.0 0.00 1.75 1.37 90 1016.3
20260503035042 10 349 0.0 0.0 0.00 1.75 1.37 91 1016.2
20260503034538 10 349 0.0 0.0 0.00 1.75 1.37 91 1016.1
20260503034037 10 349 0.0 0.0 0.00 1.75 1.37 90 1016.1
20260503033540 10 349 0.0 0.0 0.00 1.75 1.37 90 1016.1
20260503033035 10 349 0.0 0.0 0.00 1.75 1.37 90 1016.0
20260503032634 10 349 0.0 0.0 0.00 1.75 1.37 90 1016.0
20260503032035 10 349 0.0 0.0 0.00 1.75 1.37 89 1015.9
20260503031534 10 349 0.0 0.0 0.00 1.75 1.37 88 1015.9
20260503031032 10 349 0.0 0.0 0.00 1.75 1.37 88 1015.8
20260503030530 10 349 0.0 0.0 0.00 1.75 1.37 87 1015.8
20260503030029 11 349 0.0 0.0 0.00 1.75 1.37 87 1015.7
20260503025528 11 349 0.0 3.2 0.00 2.18 1.37 87 1015.7
20260503025028 11 349 0.0 3.2 0.00 2.18 1.37 86 1015.7
20260503024527 11 349 0.0 3.2 0.00 2.18 1.37 85 1015.7
20260503024026 11 349 0.0 3.2 0.00 2.18 1.37 85 1015.6
20260503023524 11 349 0.0 0.0 0.00 2.18 1.37 85 1015.6
20260503023023 11 349 0.0 0.0 0.00 2.18 1.37 83 1015.5
20260503022524 12 349 0.0 0.0 0.00 2.18 1.37 82 1015.4
20260503022027 12 349 0.0 0.0 0.00 2.18 1.37 81 1015.3
20260503021522 12 349 0.0 0.0 0.00 2.18 1.37 79 1015.3
20260503021022 12 349 0.0 0.0 0.00 2.18 1.37 79 1015.2
20260503020521 12 349 0.0 0.0 0.00 2.18 1.37 78 1015.2
20260503020021 13 349 0.0 0.0 0.00 2.18 1.37 77 1015.1
20260503015520 13 349 0.0 0.0 0.00 2.57 1.37 76 1015.0
20260503015019 13 349 0.0 0.0 0.00 2.57 1.37 74 1015.0
20260503014518 13 349 0.0 0.0 0.00 2.57 1.37 73 1014.9
20260503014018 14 349 0.0 0.0 0.00 2.57 1.37 71 1014.9
20260503013518 14 349 0.0 0.0 0.00 2.57 1.37 70 1014.8
20260503013017 15 349 0.0 0.0 0.00 2.57 1.37 69 1014.7
20260503012516 15 349 0.0 0.0 0.00 2.57 1.37 66 1014.7